Content
SEND FEEDBACK

Daily
Averages
Monthly
Summary
United States of America

UMATAC, GUAM


Home > North America > United States > Guam
Elevation: 190 feet     Latitude: 13 17N     Longitude: 144 40E

WEATHER
 
SELECT A DAY
Number of Records: 342,166;   Date Range: 1/1/95 - 8/12/14
 
SHARE

PRINT THIS DATA

[ ← Previous Day ]
WEATHER ALMANAC - MARCH 13, 2013
[ Next Day → ]
[ °C ]   °F
Weather ElementAverageHighLow
Temperature77.9 °F84.2 °F (2:06 pm)73 °F (12:55 am)
Dewpoint73 °F73.8 °F (2:55 pm)71.2 °F (4:55 am)
Humidity85 %100 % (12:16 am)70 % (2:06 pm)
Barometer29.83 in29.88 in (9:55 am)29.78 in (3:28 pm)
Wind Speed14.8 mph23 mph (12:33 am)
Wind Gust27.6 mph (12:37 am)
Weather ElementAverage
Visibility9 mi
Wind DirectionENE (55.7 °)

Weather ElementTotal
Precipitation---
Cooling Degree Days13.6 (Base 65)
Growing Degree Days28.6 (Base 50)
Averaged from 110 records on March 13, 2013
WEATHER CONDITIONS BREAKOUT
WIND DIRECTION BREAKOUT
WEATHER BY HOUR - MARCH 13, 2013
[ °C ]   °F
Local TimeTemperatureDewpointHumidityBarometerVisibilityWind DirectionWind SpeedGust SpeedPrecipitationEventsConditions
12:14 AM73.4 °F71.6 °F94 %29.86 in10.0 miNE (50°)5.8 mphMostly Cloudy
12:16 AM73.4 °F73.4 °F100 %29.86 in10.0 miNE (40°)4.6 mphMostly Cloudy
12:32 AM73.4 °F73.4 °F100 %29.86 in5.0 miENE (70°)20.7 mphRainHeavy Rain
12:33 AM73.4 °F73.4 °F100 %29.85 in4.0 miEast (80°)23.0 mphRainHeavy Rain
12:35 AM73.4 °F71.6 °F94 %29.85 in3.0 miEast (80°)21.9 mphRainRain
12:37 AM73.4 °F71.6 °F94 %29.85 in2.5 miEast (80°)21.9 mph27.6 mphRainRain
12:38 AM73.4 °F71.6 °F94 %29.85 in2.5 miEast (90°)20.7 mph27.6 mphRainRain
12:39 AM73.4 °F71.6 °F94 %29.85 in2.0 miEast (90°)17.3 mph27.6 mphRainRain
12:40 AM73.4 °F71.6 °F94 %29.85 in2.0 miEast (80°)15.0 mph27.6 mphRainLight Rain
12:42 AM73.4 °F71.6 °F94 %29.85 in2.5 miEast (80°)17.3 mph27.6 mphRainLight Rain
12:46 AM73.4 °F71.6 °F94 %29.85 in2.5 miEast (80°)19.6 mph27.6 mphRainLight Rain
12:48 AM73.4 °F71.6 °F94 %29.85 in3.0 miEast (80°)17.3 mphRainLight Rain
12:53 AM73.4 °F71.6 °F94 %29.85 in3.0 miEast (80°)18.4 mph25.3 mphLight Drizzle
12:55 AM73.0 °F71.8 °F96 %29.85 in4.0 miEast (80°)15.0 mph25.3 mph0.00 inRainLight Rain
12:57 AM73.4 °F71.6 °F94 %29.85 in4.0 miEast (90°)15.0 mph25.3 mphRainLight Rain
1:02 AM73.4 °F71.6 °F94 %29.85 in5.0 miENE (70°)15.0 mphRainLight Rain
1:05 AM73.4 °F71.6 °F94 %29.85 in5.0 miENE (60°)13.8 mphRainLight Rain
1:08 AM73.4 °F71.6 °F94 %29.85 in6.0 miENE (60°)12.7 mphLight Drizzle
1:26 AM73.4 °F71.6 °F94 %29.84 in10.0 miNE (40°)10.4 mphLight Drizzle
1:28 AM73.4 °F71.6 °F94 %29.84 in10.0 miNE (40°)10.4 mphMostly Cloudy
1:52 AM75.2 °F73.4 °F94 %29.83 in10.0 miENE (60°)9.2 mphMostly Cloudy
1:55 AM74.7 °F72.9 °F94 %29.83 in10.0 miENE (60°)16.1 mph0.00 inMostly Cloudy
2:13 AM75.2 °F71.6 °F89 %29.82 in10.0 miENE (60°)12.7 mphMostly Cloudy
2:23 AM75.2 °F73.4 °F94 %29.82 in9.0 miENE (70°)15.0 mphRainLight Rain
2:25 AM75.2 °F71.6 °F89 %29.82 in9.0 miENE (70°)13.8 mphRainLight Rain
2:31 AM75.2 °F71.6 °F89 %29.82 in9.0 miENE (60°)11.5 mphMostly Cloudy
2:32 AM75.2 °F71.6 °F89 %29.82 in10.0 miENE (70°)10.4 mphMostly Cloudy
2:55 AM75.6 °F72.0 °F89 %29.81 in10.0 miNE (50°)15.0 mph0.00 inMostly Cloudy
3:55 AM75.4 °F73.0 °F92 %29.81 in10.0 miNE (50°)11.5 mphPartly Cloudy
4:55 AM75.2 °F71.2 °F87 %29.81 in10.0 miENE (60°)13.8 mphClear
5:55 AM75.7 °F73.0 °F91 %29.82 in10.0 miENE (60°)13.8 mphPartly Cloudy
6:14 AM75.2 °F73.4 °F94 %29.82 in10.0 miENE (60°)15.0 mphMostly Cloudy
6:16 AM75.2 °F73.4 °F94 %29.82 in10.0 miENE (60°)13.8 mphScattered Clouds
6:55 AM75.7 °F72.7 °F90 %29.84 in10.0 miENE (60°)12.7 mphPartly Cloudy
7:16 AM77.0 °F73.4 °F89 %29.84 in10.0 miENE (60°)12.7 mphMostly Cloudy
7:20 AM77.0 °F73.4 °F89 %29.85 in10.0 miNE (50°)13.8 mphMostly Cloudy
7:49 AM77.0 °F73.4 °F89 %29.85 in10.0 miENE (60°)15.0 mphScattered Clouds
7:55 AM77.9 °F73.0 °F85 %29.85 in10.0 miENE (60°)15.0 mphScattered Clouds
8:47 AM80.6 °F73.4 °F79 %29.86 in10.0 miENE (60°)16.1 mphMostly Cloudy
8:52 AM80.6 °F73.4 °F79 %29.86 in10.0 miENE (60°)16.1 mphScattered Clouds
8:55 AM80.2 °F73.0 °F79 %29.86 in10.0 miENE (70°)15.0 mphScattered Clouds
9:00 AM80.6 °F73.4 °F79 %29.86 in10.0 miENE (70°)16.1 mphMostly Cloudy
9:09 AM80.6 °F73.4 °F79 %29.86 in10.0 miENE (70°)13.8 mphMostly Cloudy
9:13 AM80.6 °F73.4 °F79 %29.86 in10.0 miENE (60°)13.8 mphScattered Clouds
9:39 AM80.6 °F73.4 °F79 %29.87 in10.0 miNE (50°)15.0 mphMostly Cloudy
9:55 AM81.1 °F72.9 °F76 %29.88 in10.0 miNE (50°)17.3 mphMostly Cloudy
10:00 AM80.6 °F73.4 °F79 %29.88 in10.0 miNE (40°)18.4 mphMostly Cloudy
10:19 AM80.6 °F73.4 °F79 %29.88 in10.0 miNNE (30°)17.3 mphMostly Cloudy
10:55 AM82.8 °F73.0 °F72 %29.87 in10.0 miNE (40°)16.1 mphMostly Cloudy
11:55 AM83.8 °F73.6 °F71 %29.86 in10.0 miENE (60°)17.3 mphPartly Cloudy
12:55 PM82.9 °F73.2 °F72 %29.83 in10.0 miNE (40°)17.3 mphScattered Clouds
1:55 PM83.3 °F73.6 °F72 %29.81 in10.0 miNE (40°)16.1 mphMostly Cloudy
2:06 PM84.2 °F73.4 °F70 %29.81 in10.0 miNE (50°)17.3 mphScattered Clouds
2:35 PM82.4 °F73.4 °F74 %29.79 in10.0 miNNE (30°)17.3 mphMostly Cloudy
2:44 PM82.4 °F73.4 °F74 %29.79 in10.0 miNE (50°)15.0 mphMostly Cloudy
2:51 PM84.2 °F73.4 °F70 %29.79 in10.0 miNE (40°)17.3 mphMostly Cloudy
2:55 PM82.9 °F73.8 °F74 %29.79 in10.0 miNNE (30°)18.4 mphMostly Cloudy
3:00 PM82.4 °F73.4 °F74 %29.79 in10.0 miNE (40°)16.1 mphScattered Clouds
3:28 PM82.4 °F73.4 °F74 %29.78 in10.0 miNE (40°)17.3 mphMostly Cloudy
3:35 PM82.4 °F73.4 °F74 %29.78 in10.0 miNE (40°)17.3 mphMostly Cloudy
3:52 PM82.4 °F73.4 °F74 %29.78 in10.0 miNE (40°)17.3 mphMostly Cloudy
3:55 PM82.2 °F73.4 °F75 %29.78 in10.0 miNE (40°)17.3 mphMostly Cloudy
4:28 PM80.6 °F73.4 °F79 %29.78 in10.0 miNE (50°)17.3 mphScattered Clouds
4:32 PM80.6 °F73.4 °F79 %29.78 in10.0 miENE (60°)16.1 mphMostly Cloudy
4:39 PM80.6 °F73.4 °F79 %29.79 in10.0 miNE (40°)18.4 mphMostly Cloudy
4:42 PM80.6 °F73.4 °F79 %29.79 in10.0 miNE (50°)16.1 mphMostly Cloudy
4:45 PM80.6 °F73.4 °F79 %29.79 in10.0 miNE (50°)13.8 mphScattered Clouds
4:52 PM80.6 °F73.4 °F79 %29.79 in10.0 miNE (50°)13.8 mphMostly Cloudy
4:55 PM81.0 °F73.4 °F78 %29.79 in10.0 miNE (40°)15.0 mphMostly Cloudy
5:12 PM80.6 °F73.4 °F79 %29.80 in10.0 miENE (60°)18.4 mphMostly Cloudy
5:14 PM80.6 °F73.4 °F79 %29.80 in10.0 miENE (60°)17.3 mphMostly Cloudy
5:15 PM80.6 °F73.4 °F79 %29.80 in10.0 miENE (60°)16.1 mphMostly Cloudy
5:25 PM80.6 °F73.4 °F79 %29.80 in10.0 miNE (50°)15.0 mphMostly Cloudy
5:29 PM78.8 °F73.4 °F83 %29.80 in10.0 miNE (50°)15.0 mphScattered Clouds
5:55 PM79.3 °F73.4 °F82 %29.81 in10.0 miNE (40°)12.7 mphScattered Clouds
6:00 PM78.8 °F73.4 °F83 %29.81 in10.0 miNE (50°)15.0 mphMostly Cloudy
6:02 PM78.8 °F73.4 °F83 %29.81 in10.0 miNE (40°)16.1 mphScattered Clouds
6:12 PM78.8 °F73.4 °F83 %29.81 in10.0 miNE (40°)15.0 mphMostly Cloudy
6:15 PM78.8 °F73.4 °F83 %29.81 in10.0 miNE (50°)16.1 mphScattered Clouds
6:17 PM78.8 °F73.4 °F83 %29.81 in10.0 miNE (50°)13.8 mphMostly Cloudy
6:23 PM78.8 °F73.4 °F83 %29.82 in10.0 miNE (50°)13.8 mphMostly Cloudy
6:25 PM78.8 °F73.4 °F83 %29.82 in10.0 miNE (50°)13.8 mphMostly Cloudy
6:29 PM78.8 °F73.4 °F83 %29.82 in10.0 miNE (50°)13.8 mphScattered Clouds
6:30 PM78.8 °F73.4 °F83 %29.81 in10.0 miNE (50°)13.8 mphMostly Cloudy
6:33 PM78.8 °F73.4 °F83 %29.82 in10.0 miNE (40°)13.8 mphScattered Clouds
6:46 PM78.8 °F73.4 °F83 %29.82 in10.0 miNE (50°)10.4 mphMostly Cloudy
6:48 PM78.8 °F73.4 °F83 %29.82 in10.0 miNE (50°)13.8 mphScattered Clouds
6:49 PM78.8 °F73.4 °F83 %29.82 in10.0 miNE (50°)12.7 mphMostly Cloudy
6:51 PM78.8 °F73.4 °F83 %29.82 in10.0 miNE (50°)11.5 mphScattered Clouds
6:52 PM78.8 °F73.4 °F83 %29.82 in10.0 miENE (60°)10.4 mphMostly Cloudy
6:55 PM78.3 °F73.6 °F85 %29.82 in10.0 miNE (50°)13.8 mphMostly Cloudy
7:07 PM78.8 °F73.4 °F83 %29.83 in10.0 miNE (50°)13.8 mphMostly Cloudy
7:15 PM78.8 °F73.4 °F83 %29.83 in10.0 miNE (50°)13.8 mphMostly Cloudy
7:17 PM78.8 °F73.4 °F83 %29.83 in10.0 miENE (60°)13.8 mphMostly Cloudy
7:30 PM77.0 °F73.4 °F89 %29.84 in10.0 miENE (60°)12.7 mphMostly Cloudy
7:43 PM77.0 °F73.4 °F89 %29.84 in10.0 miENE (60°)11.5 mphMostly Cloudy
7:55 PM77.5 °F73.2 °F86 %29.84 in10.0 miENE (60°)12.7 mphMostly Cloudy
8:05 PM77.0 °F73.4 °F89 %29.84 in10.0 miENE (60°)13.8 mphMostly Cloudy
8:11 PM77.0 °F73.4 °F89 %29.85 in10.0 miENE (60°)12.7 mphScattered Clouds
8:12 PM77.0 °F73.4 °F89 %29.85 in10.0 miENE (60°)13.8 mphMostly Cloudy
8:15 PM77.0 °F73.4 °F89 %29.85 in10.0 miENE (60°)13.8 mphScattered Clouds
8:27 PM77.0 °F73.4 °F89 %29.85 in10.0 miNE (50°)11.5 mphMostly Cloudy
8:31 PM77.0 °F73.4 °F89 %29.85 in10.0 miNE (50°)12.7 mphScattered Clouds
8:55 PM77.7 °F73.0 °F85 %29.86 in10.0 miNE (50°)13.8 mphMostly Cloudy
9:44 PM77.0 °F73.4 °F89 %29.87 in10.0 miENE (60°)12.7 mphMostly Cloudy
9:50 PM77.0 °F73.4 °F89 %29.87 in10.0 miENE (60°)13.8 mphMostly Cloudy
10:55 PM77.7 °F73.2 °F86 %29.87 in10.0 miNE (50°)12.7 mphScattered Clouds
11:14 PM77.0 °F73.4 °F89 %29.87 in10.0 miNE (50°)13.8 mphMostly Cloudy
11:20 PM77.0 °F71.6 °F83 %29.87 in10.0 miNE (50°)15.0 mphScattered Clouds
11:55 PM76.8 °F72.5 °F86 %29.86 in10.0 miNE (50°)10.4 mphClear
Hourly data recorded from PGUA, located miles away from Umatac, Guam







STORIES FROM OUR PARTNERS